Regional Weather Roundup
Issued by NWS

Home | Current Version | Previous Version | Text Only | Print | Product List | Glossary Off
Versions: 1 2 3 4 5 6 7 8 9 10 11 12 13 14 15 16 17 18 19 20 21 22 23 24 25 26 27 28 29 30 31 32 33 34 35 36 37 38 39 40 41 42 43 44 45 46 47 48 49 50

470
ASUS46 KSTO 202215
RWRCA

NORTHERN AND CENTRAL CA REGIONAL WEATHER ROUNDUP
NATIONAL WEATHER SERVICE SACRAMENTO CA
300 PM PDT SUN AUG 20 2017

NOTE: FAIR INDICATES FEW OR NO CLOUDS BELOW 12,000 FEET WITH NO
SIGNIFICANT WEATHER AND/OR OBSTRUCTIONS TO VISIBILITY.

CAZ001-003-202300-
NORTHWEST AREA

CITY           SKY/WX    TMP DP  RH WIND       PRES   REMARKS
CRESCENT CITY  CLOUDY    59  51  75 N13       29.89F
UKIAH          SUNNY     87  58  37 SE8       29.83F
$$

CAZ006-505>513-202300-
BAY AREA

CITY           SKY/WX    TMP DP  RH WIND       PRES   REMARKS
SANTA ROSA     SUNNY     73  58  59 W7        29.89F
SAN RAFAEL     N/A       73  MM  MM MISG
NAPA           SUNNY     75  59  57 S21G26    29.87F
CONCORD        SUNNY     78  56  46 W15       29.86S
OAKLAND CITY   N/A      MM  MM  MM MISG
OAKLAND        MOSUNNY   73  59  61 W13       29.89S
SAN FRAN CITY  N/A       68  MM  65 MISG
SAN FRAN ARPT  MOSUNNY   71  56  58 W14       29.88F
LIVERMORE      SUNNY     84  57  39 W13       29.84F
HAYWARD        SUNNY     74  55  51 NW16      29.87F
REDWOOD CITY   N/A       75  MM  58 MISG
MOFFETT ARPT   SUNNY     76  60  57 NW15      29.87F
SAN JOSE ARPT  SUNNY     79  60  52 NW14      29.86F
$$
CAZ034-037-514>518-202300-
CENTRAL COAST

CITY           SKY/WX    TMP DP  RH WIND       PRES   REMARKS
WATSONVILLE    SUNNY     70  58  65 SW13G20   29.92S
SALINAS        SUNNY     71  58  63 NW16      29.88F
MONTEREY       SUNNY     73  58  59 NW7       29.89F
SAN LUIS OBISP CLOUDY    69  60  73 SW10      29.92F
SANTA MARIA    PTSUNNY   69  60  73 W10       29.92F
$$
CAZ015-016-202300-
NORTHERN SACRAMENTO VALLEY

CITY           SKY/WX    TMP DP  RH WIND       PRES   REMARKS
REDDING        SUNNY    100  47  16 CALM      29.75F HX  96
RED BLUFF      SUNNY     97  54  23 VRB7      29.77F HX  95
OROVILLE       SUNNY     89  61  38 S6        29.80F
$$
CAZ016>018-202300-
SOUTHERN SACRAMENTO VALLEY

CITY           SKY/WX    TMP DP  RH WIND       PRES   REMARKS
AUBURN         SUNNY     88  75  66 S6        29.88F HX  97
LINCOLN        FAIR      90  52  27 SE6       29.80F
MARYSVILLE     SUNNY     90  62  39 VRB7      29.80F HX  90
SAC INTL ARPT  SUNNY     88  59  37 S7        29.79F
MATHER AIRPORT SUNNY     88  57  35 S9        29.81F
DOWNTOWN SAC   N/A       88  MM  MM MISG
SAC EXEC ARPT  SUNNY     85  58  39 S8        29.81F
VACAVILLE      SUNNY     90  56  31 SW15      29.81F
TRAVIS AFB     SUNNY     83  57  40 SW21G28   29.79F
$$
CAZ019>021-202300-
SAN JOAQUIN VALLEY

CITY           SKY/WX    TMP DP  RH WIND       PRES   REMARKS
STOCKTON       SUNNY     89  60  37 NW7       29.81F
MODESTO        SUNNY     89  59  36 VRB7      29.80F
MERCED         SUNNY     90  57  32 W8        29.79F
LEMOORE        SUNNY     96  57  27 CALM      29.78F HX  95
FRESNO         MOSUNNY   94  55  26 N5        29.79F HX  92
HANFORD        SUNNY     94  55  26 NW3       29.78F HX  92
PORTERVILLE      N/A     94  61  33 N9        29.79F HX  94
BAKERSFIELD    SUNNY     97  57  26 N12       29.77F HX  96
$$
CAZ011-012-071-202300-
NORTHERN MOUNTAINS

CITY           SKY/WX    TMP DP  RH WIND       PRES   REMARKS
YREKA          SUNNY     91  35  13 VRB6      29.97F
MOUNT SHASTA   SUNNY     87  47  24 VRB5      30.00F
ALTURAS        SUNNY     90  32  12 NW6       30.04F
$$
CAZ011-012-071-202300-
SIERRA NEVADA MTNS

CITY           SKY/WX    TMP DP  RH WIND       PRES   REMARKS
BLUE CANYON    MOSUNNY   77  53  43 SW7       30.12S
TRUCKEE        PTSUNNY   82  43  24 CALM      30.14S
TAHOE VLY ARPT MOSUNNY   80  43  26 N8        30.13F
MAMMOTH LAKES  FAIR      81  29  14 SE12G20   30.19F
$$




USA.gov is the U.S. government's official web portal to all federal, state and local government web resources and services.